OpenBCM V1.13 (Linux)

Packet Radio Mailbox

DB0FHN

[JN59NK Nuernberg]

 Login: GUEST





  
UA9FBV > KEPS     24.10.04 07:36l 95 Lines 2475 Bytes #999 (0) @ AMSAT
BID : ORB04297.M
Read: GUEST
Subj: Orbital Elements  04297.MISC
Path: DB0FHN<DB0FOR<DB0MRW<OK0PKL<OK0PPL<RZ6HXA<ER3KAZ<UA9FBV
Sent: 041024/0531Z @:UA9FBV.PRM.RUS.AS #:6661 [Perm] GATEWAY $:ORB04297.M
From: UA9FBV@UA9FBV.PRM.RUS.AS
To  : KEPS@AMSAT


HR AMSAT ORBITAL ELEMENTS FOR MANNED AND MISCELLANEOUS SATELLITES
FROM WA5QGD FORT WORTH,TX October 23, 2004
SEND SUBSCRIBE/UNSUBSCRIBE TO majordomo@amsat.org ONLY
BID: ORB04297.M
TO ALL RADIO AMATEURS BT

Satellite: HUBBLE
Catalog number: 20580
Epoch time:      04296.45910607
Element set:     190
Inclination:       28.4694 deg
RA of node:        17.3953 deg
Eccentricity:    0.0004117
Arg of perigee:   265.2946 deg
Mean anomaly:      94.7172 deg
Mean motion:   14.99359833 rev/day
Decay rate:       9.12e-06 rev/day^2
Epoch rev:           59452
Checksum:              316

Satellite: UARS
Catalog number: 21701
Epoch time:      04297.13514027
Element set:     292
Inclination:       56.9796 deg
RA of node:        70.8709 deg
Eccentricity:    0.0004082
Arg of perigee:   104.8821 deg
Mean anomaly:     255.2706 deg
Mean motion:   15.03643814 rev/day
Decay rate:       1.95e-06 rev/day^2
Epoch rev:           71783
Checksum:              292

Satellite: PO-34
Catalog number: 25520
Epoch time:      04296.53969937
Element set:      37
Inclination:       28.4595 deg
RA of node:       100.6175 deg
Eccentricity:    0.0005801
Arg of perigee:   161.7418 deg
Mean anomaly:     198.3393 deg
Mean motion:   15.15805020 rev/day
Decay rate:      1.153e-05 rev/day^2
Epoch rev:           33048
Checksum:              298

Satellite: ISS
Catalog number: 25544
Epoch time:      04297.96542328
Element set:     980
Inclination:       51.6373 deg
RA of node:        28.6676 deg
Eccentricity:    0.0008519
Arg of perigee:   266.5357 deg
Mean anomaly:     265.8198 deg
Mean motion:   15.69455665 rev/day
Decay rate:     2.2933e-04 rev/day^2
Epoch rev:           33854
Checksum:              355

Satellite: OO-38
Catalog number: 26063
Epoch time:      04297.52847600
Element set:     192
Inclination:      100.2271 deg
RA of node:       108.0069 deg
Eccentricity:    0.0037007
Arg of perigee:     1.7642 deg
Mean anomaly:     358.3661 deg
Mean motion:   14.35674381 rev/day
Decay rate:        7.6e-07 rev/day^2
Epoch rev:           24833
Checksum:              286

Satellite: NO-45
Catalog number: 26932
Epoch time:      04297.31002062
Element set:     876
Inclination:       67.0553 deg
RA of node:       117.4996 deg
Eccentricity:    0.0006301
Arg of perigee:   288.3715 deg
Mean anomaly:      71.6715 deg
Mean motion:   14.29447513 rev/day
Decay rate:       1.67e-06 rev/day^2
Epoch rev:           15994
Checksum:              314



Read previous mail | Read next mail


 21.06.2026 04:37:48lGo back Go up